Zurück zum Katalog

STARLINK-37398

AktivKommunikationVLEO
NORAD 69249·PAYLOAD·🇺🇸 United States

Gestartet May 29, 2026 von Cape Canaveral Space Force Station

Loading…

Nächste Überflüge (nächste 24 Stunden)

TLE

AktuellSource: CelesTrak SupGP

Epoche: Sep 15, 2026, 03:49 UTC

1 69249C 26117M   26258.15951389 -.00007681  00000+0 -22688-3 0  2581
2 69249  53.1574 178.5580 0001224  94.5473 110.1530 15.34404146    16

Verfolge STARLINK-37398 in Echtzeit mit AllMySat

Download on the App Store